GFSCGP_sfc_rhum_000.txt.gz
RH
35 35 33 26 24 22 21 23 24 18 18 30 30 27 23 21 20 19 18 17 18 18 17 20 23 30 29 26 24 27 31 33 33 39 43 50 48 52 46 46 40 41 39 41
38 38 25 21 20 25 27 26 23 18 21 29 32 32 26 24 21 19 19 19 19 20 19 27 29 34 30 26 25 27 28 30 32 36 38 39 41 50 47 47 44 43 46 44
28 25 23 25 27 27 28 32 26 25 24 33 35 39 34 28 22 22 21 19 20 21 22 29 30 34 31 26 24 25 28 29 30 37 39 40 42 43 45 49 52 52 51 54
28 21 22 26 24 23 26 23 29 29 37 46 34 35 27 24 20 22 19 17 20 22 24 27 29 35 31 27 26 24 27 28 30 34 39 36 38 41 42 44 57 58 54 48
26 33 35 35 28 25 32 39 40 42 48 57 46 45 29 22 23 20 17 17 20 21 26 28 29 30 31 31 28 27 28 28 28 33 38 41 45 40 36 45 54 54 56 54
28 32 36 34 37 38 35 38 38 41 45 56 34 32 30 27 22 20 18 16 17 33 32 29 30 32 31 34 34 31 29 29 30 36 40 40 40 44 42 50 55 60 59 56
33 31 37 35 40 42 40 43 69 70 77 46 26 34 20 23 18 16 16 14 17 34 35 33 33 34 33 36 36 36 33 30 34 41 41 42 41 39 39 43 50 53 52 50
32 28 34 35 31 36 47 41 72 66 40 29 61 46 27 20 16 16 14 15 28 34 36 36 34 32 32 34 37 36 38 32 36 41 44 41 44 42 42 45 46 49 50 46
29 25 38 35 33 30 42 49 38 66 69 71 30 25 22 24 21 19 18 21 29 34 37 39 37 35 36 37 37 37 36 36 35 40 42 40 42 47 44 47 44 45 44 36
25 29 28 40 36 37 39 37 54 64 62 66 28 29 23 21 17 23 29 27 28 31 36 39 39 38 35 34 35 36 37 39 37 41 41 40 43 48 45 44 44 43 43 40
32 35 32 38 43 35 46 46 42 35 62 55 41 27 22 23 26 27 26 28 28 32 32 34 37 39 36 36 36 38 42 42 44 44 45 45 48 46 43 40 42 42 44 48
38 48 62 30 24 30 28 31 29 37 36 51 35 31 18 23 23 20 21 20 21 28 32 32 35 38 37 35 36 38 42 44 46 45 48 46 46 42 38 36 38 45 48 51
52 62 86 53 37 38 36 32 28 28 32 37 46 32 15 13 14 18 21 24 25 26 32 34 36 35 33 35 36 37 40 44 48 46 46 44 41 36 34 33 38 44 48 52
65 80 76 65 48 36 42 36 34 31 41 39 36 29 21 18 16 16 16 17 24 29 27 31 37 38 34 34 34 33 38 44 47 46 44 41 38 35 34 35 40 45 49 53
79 99 88 66 58 60 64 49 42 41 39 42 30 27 22 19 18 17 16 17 17 20 20 26 32 39 37 41 35 35 35 44 45 44 43 39 37 36 38 52 62 64 62 54
84 97 99 97 81 71 72 52 50 52 45 38 36 36 22 18 18 18 18 17 20 22 22 24 32 41 51 46 35 36 36 46 46 44 43 35 44 54 64 71 71 73 75 74
98 98 98 94 81 88 94 84 70 61 51 46 48 36 26 25 23 22 21 21 23 27 28 36 38 42 50 51 42 40 40 52 57 57 58 55 58 62 69 74 76 76 74 70
93 96 93 93 83 98 73 56 58 61 54 48 45 40 37 34 27 26 31 35 33 32 32 36 51 47 50 55 52 48 55 59 60 62 61 62 62 68 76 76 76 76 80 81
70 84 95 98 94 68 66 55 59 64 63 47 48 44 40 36 37 38 31 30 32 34 34 37 50 53 55 56 51 55 61 60 59 60 62 64 65 76 75 82 86 88 90 89
84 79 95 96 98 94 62 48 41 39 64 43 40 42 44 44 59 47 34 35 43 44 47 49 57 58 58 58 53 58 61 61 60 60 58 62 69 77 82 84 91 92 90 88
99 98 98 97 97 90 75 57 51 81 60 37 38 37 38 44 41 34 37 43 46 48 47 61 58 57 57 55 60 61 62 62 59 63 64 72 76 80 82 90 90 92 92 89
95 98 95 81 85 89 88 69 74 85 89 91 92 91 94 89 80 76 63 57 52 52 54 68 60 60 60 63 63 64 64 61 64 68 76 81 85 85 88 89 94 94 93 94
94 94 96 96 96 87 87 84 58 85 100 96 96 95 91 91 88 86 84 84 72 58 59 62 71 67 57 73 67 70 66 68 74 81 85 89 88 91 91 91 94 94 94 91
62 51 76 83 84 61 36 35 53 56 62 60 64 67 66 70 75 84 75 71 83 81 72 83 80 77 74 78 75 77 73 74 79 83 87 88 89 93 91 86 85 91 92 91
62 48 58 52 36 37 40 43 41 44 50 66 69 68 63 64 69 77 81 86 86 88 85 82 76 74 70 74 75 82 76 78 82 83 84 84 85 85 89 84 88 85 86 86
47 47 50 55 38 39 41 49 53 71 68 69 78 81 72 73 72 68 70 70 71 68 73 86 78 76 74 76 76 84 80 79 80 81 80 79 82 82 81 87 92 83 86 82

GFSCGP_sfc_rhum_003.txt.gz
RH
40 39 39 24 36 27 28 31 33 24 23 31 29 30 25 24 30 30 27 23 20 22 20 24 27 27 30 31 30 29 33 37 36 43 51 53 46 54 52 51 49 48 49 51
45 44 28 28 32 33 32 32 30 21 22 30 28 26 26 32 27 23 23 22 20 24 24 24 34 36 32 30 30 30 31 36 34 37 40 48 46 56 49 53 49 48 52 53
29 33 32 32 34 32 28 30 26 27 26 33 34 37 33 30 30 24 22 22 21 25 26 30 39 37 33 29 31 30 31 34 34 37 41 50 53 55 54 56 50 55 57 61
39 28 27 37 32 28 26 29 28 36 46 34 40 33 29 30 30 29 26 22 23 28 27 32 36 44 34 29 28 29 32 34 35 40 38 42 37 42 40 40 49 58 60 59
30 31 39 36 26 29 27 36 37 45 49 58 46 47 33 26 26 22 18 17 18 26 26 33 33 33 33 29 28 31 34 34 36 39 36 40 40 40 47 52 56 58 67 62
34 38 34 34 41 35 38 41 43 46 49 51 42 33 25 30 24 23 19 17 16 24 29 31 32 39 36 32 30 31 36 37 36 39 39 36 39 48 50 52 56 58 60 64
38 34 41 36 40 43 44 45 64 62 79 50 30 44 22 24 22 21 18 17 16 28 34 35 36 38 39 38 34 33 36 37 38 38 42 37 37 38 41 48 50 56 58 66
38 24 38 36 30 36 50 41 66 55 47 29 67 52 28 25 20 20 17 14 20 37 35 35 34 37 39 38 38 34 40 36 39 39 42 41 42 38 39 43 47 48 49 50
39 31 42 42 42 33 45 50 34 63 81 73 32 31 23 27 24 24 21 26 28 37 40 37 38 37 38 40 39 37 38 36 38 40 43 44 44 40 40 42 47 48 49 45
28 33 30 41 40 39 42 40 58 68 60 67 34 37 24 22 18 20 26 25 32 38 42 43 41 38 39 36 37 39 37 38 38 42 45 44 45 41 42 51 50 51 48 45
39 38 34 40 44 41 44 47 43 44 63 43 41 30 23 28 22 19 26 29 29 34 38 43 44 40 37 39 41 41 42 44 44 47 48 48 49 49 50 46 46 46 44 46
57 57 75 40 29 35 34 38 36 41 46 58 48 35 20 25 27 28 26 24 31 33 33 36 41 46 48 41 42 42 43 44 45 47 52 49 53 53 48 44 45 46 43 47
70 93 96 76 42 36 33 33 34 35 57 59 68 46 21 20 19 19 20 20 22 22 26 36 39 42 41 40 42 40 42 45 49 55 55 52 53 51 46 45 46 44 48 51
71 95 96 78 53 44 63 52 46 38 51 46 48 40 29 24 21 18 18 16 16 21 20 30 36 41 42 42 39 39 42 47 54 54 52 52 50 49 44 44 44 44 48 52
67 97 97 83 68 63 64 65 56 58 48 54 47 43 32 27 23 21 18 16 18 24 26 26 29 36 41 39 39 40 38 48 54 52 52 50 49 46 44 49 55 61 58 54
62 87 85 97 90 94 96 68 66 68 62 56 49 42 29 29 28 28 26 24 24 20 18 21 30 33 40 44 38 40 38 48 53 52 53 50 55 55 57 61 64 62 65 70
86 98 98 96 87 87 97 84 74 66 57 55 64 45 31 29 29 31 30 26 25 24 22 26 33 38 42 46 46 45 43 55 62 63 66 64 61 60 60 60 62 62 67 67
93 99 99 96 97 98 83 62 70 70 56 51 50 47 39 36 35 34 30 33 33 32 30 42 49 46 50 52 59 50 60 62 65 69 71 66 61 62 63 64 63 67 70 73
90 97 98 98 96 77 63 62 60 65 65 49 53 50 46 44 42 42 37 47 42 40 36 37 51 53 55 56 58 60 66 67 68 68 67 64 61 67 68 70 68 70 77 82
93 85 80 80 95 89 48 61 54 52 79 95 98 96 96 88 86 78 83 76 77 70 58 55 54 59 60 64 63 65 68 68 68 65 63 62 64 72 72 69 74 80 82 85
73 92 97 98 97 87 97 97 87 100 96 95 97 96 94 97 98 96 92 74 66 78 74 66 63 65 64 65 75 71 73 69 68 69 67 68 68 73 70 75 77 87 88 87
82 96 82 75 81 83 87 93 89 86 93 96 85 80 87 78 79 78 77 69 62 73 76 78 71 67 62 71 79 76 71 76 75 71 72 74 76 76 80 82 89 87 86 90
82 94 95 96 94 72 65 45 40 92 90 82 80 84 85 87 85 81 80 80 80 81 84 81 80 77 65 81 80 77 80 77 78 79 80 82 83 83 86 85 88 88 88 84
60 43 58 71 44 39 32 33 48 56 70 85 85 89 86 87 85 81 75 75 75 73 74 82 86 80 78 79 81 76 79 78 81 84 85 88 88 90 86 80 79 79 82 80
68 57 71 57 42 38 39 43 56 65 61 57 63 73 68 66 71 69 75 77 75 81 77 77 80 79 76 79 81 81 81 79 83 85 90 90 86 87 86 76 76 73 72 70
55 56 55 52 35 54 50 56 66 61 62 66 71 69 65 68 70 69 74 69 71 76 78 80 86 90 83 77 82 82 82 81 84 89 89 86 84 81 78 76 79 69 74 71

GFSCGP_sfc_rhum_006.txt.gz
RH
44 44 40 26 38 26 30 34 35 27 21 37 37 33 28 22 28 34 29 24 21 20 17 23 30 31 33 35 36 34 34 39 41 48 53 54 50 56 63 61 55 55 54 56
49 50 32 28 32 39 36 33 30 25 26 35 28 27 21 25 22 20 22 22 24 22 19 28 30 38 37 36 36 34 33 39 36 38 41 45 45 58 50 54 53 51 55 58
29 29 37 33 35 38 37 38 32 32 32 36 37 32 33 28 26 22 30 25 22 20 18 26 31 39 42 39 37 34 34 36 34 39 46 57 57 55 56 55 56 56 60 65
44 32 34 45 41 33 31 32 32 37 45 34 38 32 27 26 26 26 27 25 25 23 24 26 33 46 43 37 36 33 35 36 35 41 45 47 37 40 40 42 54 62 62 60
28 34 40 42 31 36 31 33 34 44 53 58 59 55 43 28 29 24 17 20 18 16 26 28 35 37 41 39 37 34 36 37 38 43 40 44 42 40 52 57 58 58 66 63
37 38 36 36 38 35 39 40 46 57 51 50 38 40 27 32 24 23 18 16 16 15 22 28 35 45 45 41 39 37 39 40 44 41 42 41 39 51 52 56 54 58 61 64
36 37 41 36 39 44 41 43 62 62 77 57 32 49 21 22 18 21 16 16 16 16 28 35 40 46 42 40 41 41 41 41 46 46 41 40 39 45 41 51 50 54 58 61
37 31 36 37 31 36 44 36 53 64 49 32 63 46 28 24 20 20 21 21 20 22 30 34 40 43 41 39 40 38 45 40 43 44 41 41 39 45 41 48 49 50 50 50
39 35 39 42 41 32 46 52 32 63 80 78 33 30 25 32 23 24 24 24 24 24 33 37 42 45 47 45 39 38 41 42 42 43 44 45 41 43 41 48 51 52 52 54
36 42 33 40 41 42 40 39 59 67 69 68 42 41 28 27 24 25 24 22 25 31 44 42 40 42 48 46 41 40 38 39 44 46 45 46 46 44 42 54 54 56 59 54
46 53 52 44 46 39 47 47 46 47 69 51 51 40 29 25 30 28 24 21 31 32 39 41 42 42 44 47 48 46 45 48 50 48 48 49 52 50 51 51 54 58 54 52
57 72 98 74 44 41 39 35 33 44 55 63 60 46 29 26 27 26 24 21 23 32 33 36 41 47 48 46 47 44 44 46 44 46 49 52 52 54 52 50 52 55 50 51
76 93 85 90 73 55 40 38 36 38 46 51 72 65 25 23 25 29 29 23 21 22 25 30 36 40 41 42 43 42 43 45 47 51 52 56 56 53 50 50 54 51 49 49
73 81 78 72 49 54 56 52 46 36 44 44 44 36 27 25 25 24 26 25 23 19 22 22 23 32 38 42 40 42 43 46 50 53 54 53 54 53 51 51 50 47 46 48
77 97 97 86 71 64 60 61 55 50 45 55 41 38 32 28 27 26 25 25 26 28 26 23 24 25 32 46 43 43 41 46 50 52 55 52 53 52 54 57 58 55 53 46
95 97 97 96 88 89 88 69 64 59 55 55 56 56 36 34 30 31 30 29 29 28 33 34 33 29 35 37 36 44 42 49 54 55 57 53 60 62 65 64 61 59 57 58
92 97 97 94 97 95 96 85 88 68 64 62 72 56 65 70 61 47 44 72 82 70 67 62 59 56 43 33 36 44 45 54 65 64 66 68 68 68 66 64 63 61 60 61
88 91 89 94 85 96 69 82 74 83 71 63 75 96 94 87 78 90 87 93 86 71 64 62 62 61 61 52 50 51 69 67 67 70 75 73 71 70 68 66 64 61 61 63
51 78 86 92 80 64 62 71 92 97 93 93 95 85 82 81 60 82 56 57 64 62 62 61 69 69 68 61 64 72 79 78 74 73 74 73 69 72 70 70 64 62 65 67
38 58 69 77 93 92 95 88 75 90 97 93 97 95 93 84 82 68 58 64 68 67 69 76 79 77 74 65 64 80 83 86 78 76 76 74 71 74 73 70 70 70 71 70
89 86 85 75 73 80 71 75 47 96 91 83 93 77 72 69 72 68 61 65 74 68 63 64 74 79 80 74 69 67 83 83 88 85 84 82 78 79 76 75 74 79 77 77
57 85 96 91 92 87 55 54 63 51 64 88 76 64 82 71 66 61 64 70 66 66 64 69 78 78 79 82 77 70 69 82 89 86 85 84 84 82 81 81 84 83 81 84
76 74 90 90 82 50 49 52 39 83 91 81 84 80 70 78 73 66 60 61 61 63 66 72 84 86 82 84 90 89 77 85 89 87 88 88 89 87 86 85 89 86 84 80
69 45 70 81 49 50 40 36 43 60 74 70 69 68 74 68 61 62 60 59 58 68 74 73 77 82 84 82 87 90 86 86 89 88 88 89 88 91 88 85 83 83 83 78
61 64 70 66 52 47 40 44 61 60 62 59 60 66 64 66 65 61 64 69 69 67 68 71 76 78 80 80 86 90 91 91 89 89 89 91 89 91 89 85 84 79 74 70
52 53 58 57 36 37 41 45 58 63 60 66 69 70 66 66 66 64 71 65 66 69 70 76 78 77 76 77 82 84 88 94 92 92 91 89 87 87 86 88 91 89 86 80

GFSCGP_sfc_rhum_009.txt.gz
RH
45 46 42 28 37 25 34 37 38 31 25 42 37 32 28 23 25 23 31 26 22 22 18 17 26 35 37 37 36 36 38 39 44 52 59 58 55 64 69 66 54 55 57 60
55 50 33 33 34 40 43 40 37 28 26 34 31 29 26 25 24 21 18 18 18 18 18 18 31 38 42 36 38 38 37 40 42 44 42 48 45 66 61 66 60 55 60 62
33 32 39 38 39 40 41 42 33 33 36 38 38 32 29 29 28 22 20 19 19 20 21 20 31 35 43 44 43 40 38 41 40 43 51 62 58 60 64 68 63 59 60 65
45 37 34 47 45 36 32 34 36 41 52 41 37 34 28 21 20 22 23 20 23 23 22 24 31 37 40 40 46 41 39 42 40 44 48 48 43 43 46 46 56 60 63 62
28 44 48 47 38 39 36 36 37 45 53 60 56 56 47 28 25 25 23 23 21 21 22 20 31 35 40 49 48 43 43 42 41 45 44 46 43 42 53 60 62 61 68 64
41 41 36 36 41 41 40 43 50 64 54 61 43 43 32 32 24 25 23 20 20 20 16 24 29 37 50 52 50 45 46 44 45 45 45 44 40 52 51 57 55 58 61 64
36 40 42 36 40 48 44 47 62 63 78 56 38 51 22 21 17 20 17 21 21 22 23 20 31 42 50 51 51 47 47 46 50 49 46 46 43 47 44 50 49 55 58 59
39 45 37 38 34 36 51 44 67 66 60 41 60 48 25 22 22 27 26 26 28 27 25 32 31 43 49 47 50 44 51 47 50 47 47 46 45 48 46 48 48 50 50 49
46 46 45 42 40 29 43 50 36 63 78 77 34 32 24 31 25 27 28 30 29 25 27 37 39 48 51 50 50 48 48 48 49 48 48 47 47 51 47 54 53 51 52 51
36 46 38 44 51 44 39 41 58 70 73 65 46 36 32 28 22 23 30 30 29 28 31 40 43 44 53 50 47 47 49 48 51 51 49 47 48 47 47 56 56 56 55 56
52 71 61 58 53 48 52 53 50 47 67 55 58 53 27 29 28 28 31 33 32 30 26 30 41 42 44 51 52 47 48 52 54 55 52 51 53 50 50 52 53 55 58 58
71 86 99 76 56 58 46 52 51 60 57 50 46 46 29 27 30 33 38 33 32 28 25 29 34 39 44 43 47 49 48 50 48 50 52 52 53 56 50 49 52 55 58 58
75 93 96 93 76 88 94 70 63 57 54 64 67 49 27 26 25 27 36 37 36 32 26 25 27 29 38 41 47 47 50 50 50 54 56 57 56 58 52 49 52 56 56 56
84 87 98 96 95 64 76 61 56 60 73 61 52 41 36 31 28 24 24 33 40 53 64 64 61 60 58 55 46 43 44 49 58 61 57 54 54 55 51 51 54 55 54 55
84 98 94 86 86 95 97 96 93 79 55 58 52 55 45 37 32 56 65 72 72 71 65 58 62 60 59 62 64 55 46 52 59 58 57 54 53 53 54 58 62 60 58 51
84 93 83 91 74 70 88 92 94 92 82 79 71 65 61 86 79 77 68 56 55 55 52 54 56 57 63 63 64 67 57 55 64 57 56 53 59 63 65 65 67 63 62 59
86 88 96 90 69 71 81 67 52 46 67 82 92 96 94 85 80 89 84 54 52 50 54 58 61 66 74 74 69 66 64 64 67 67 63 69 76 73 70 71 69 66 64 61
88 85 87 85 66 78 48 53 87 86 91 93 94 96 87 77 58 56 66 46 58 64 71 74 72 68 76 76 76 73 72 71 69 71 74 84 75 72 75 74 72 67 64 64
80 82 89 94 86 55 45 75 89 90 93 92 93 87 77 61 44 37 34 44 53 63 72 62 66 67 73 74 81 87 81 74 74 72 81 86 84 80 79 77 72 68 69 68
46 63 74 85 88 96 88 64 76 56 90 78 94 88 88 78 68 51 45 53 63 79 70 69 68 69 73 77 83 89 89 85 79 78 78 87 88 88 83 77 78 74 72 72
90 92 89 98 95 82 82 58 48 80 71 51 93 91 88 83 65 59 65 66 68 72 79 70 72 71 72 74 78 89 89 89 89 82 88 91 90 90 88 84 81 81 79 77
57 76 90 100 100 90 47 38 51 54 61 67 88 69 74 77 66 63 68 60 51 52 50 50 67 72 61 63 81 90 88 84 93 90 87 88 91 94 93 90 91 86 82 84
69 57 69 77 77 56 35 41 48 60 77 84 75 74 79 68 63 62 56 56 54 51 48 57 70 66 60 75 76 82 83 85 91 94 93 90 91 92 91 90 91 87 86 83
66 45 77 77 41 44 46 42 41 45 60 68 75 75 68 70 67 63 60 57 53 59 67 69 71 72 71 69 73 78 84 86 88 91 93 94 95 95 94 91 89 88 88 83
56 65 69 66 45 43 41 42 44 52 64 67 64 64 62 68 63 60 61 67 65 67 68 71 73 73 70 69 73 74 75 78 84 88 87 94 93 94 94 93 92 93 89 85
50 50 56 62 39 41 38 37 50 63 60 66 68 70 68 69 69 64 66 63 65 66 66 72 73 74 74 74 75 74 76 80 83 87 85 92 92 92 90 91 92 90 92 92

GFSCGP_sfc_rhum_015.txt.gz
RH
49 47 46 34 38 35 35 34 36 31 27 35 26 26 25 23 23 22 20 18 19 20 18 23 27 30 32 39 40 39 41 48 63 70 74 71 71 70 70 65 63 60 56 58
52 54 39 40 38 39 42 43 39 35 31 39 36 30 24 22 22 21 20 20 23 22 20 22 26 29 32 34 41 42 40 43 56 58 61 55 58 61 61 62 62 57 61 59
44 38 42 42 42 40 45 44 35 38 40 40 42 39 39 25 32 28 25 26 26 27 25 23 25 29 35 36 42 42 41 42 48 52 57 60 62 64 64 66 65 62 62 64
50 45 40 51 43 42 42 37 39 44 47 45 39 40 39 26 22 28 26 24 24 26 26 26 28 28 33 39 46 48 47 44 47 51 57 55 49 53 55 55 58 59 62 59
38 46 51 51 43 42 42 42 45 49 53 57 52 51 38 32 28 23 23 25 28 31 29 29 29 34 34 47 53 55 51 49 48 54 53 55 52 49 51 51 63 63 64 62
46 47 42 36 42 42 42 46 49 61 55 62 45 44 41 32 26 26 21 23 26 29 30 27 32 40 43 50 56 59 55 54 53 55 56 55 53 57 56 60 63 66 64 63
43 42 46 41 43 50 48 45 58 65 76 62 47 54 35 27 26 24 22 23 26 31 33 33 33 40 42 51 56 53 59 56 57 59 58 57 55 58 54 58 58 63 64 62
51 62 40 39 36 40 50 43 59 93 76 56 70 59 42 31 28 28 32 29 32 37 38 41 46 50 51 52 49 51 58 58 57 58 60 60 59 58 53 55 55 57 58 56
56 58 48 44 42 34 48 48 41 63 86 78 50 45 35 37 30 32 33 40 59 59 62 62 59 58 60 61 57 54 53 58 57 58 61 61 60 60 57 58 59 58 57 54
48 80 54 52 47 46 40 41 58 66 83 86 60 61 46 43 45 44 75 82 72 62 58 59 59 59 56 58 58 57 56 55 57 59 60 57 61 60 60 60 59 62 58 58
63 80 74 76 59 49 56 52 50 48 81 93 78 64 46 56 80 88 83 74 64 56 56 57 56 56 55 55 56 57 61 59 60 60 61 64 62 62 63 62 60 59 60 60
68 96 98 78 69 63 59 56 55 85 94 94 83 82 43 68 79 76 68 55 49 46 48 52 56 57 55 56 60 60 60 63 63 62 64 63 61 66 64 60 59 61 60 61
92 99 97 94 74 89 86 76 76 84 99 95 94 80 66 63 73 66 58 57 52 45 43 49 56 59 54 54 61 60 60 68 69 67 68 66 63 63 62 61 60 63 59 60
86 99 97 88 71 93 99 94 90 99 97 86 87 81 56 66 77 77 72 63 56 53 47 53 66 64 53 48 54 61 58 65 72 72 71 70 70 68 63 62 62 62 61 59
92 98 94 94 90 84 88 92 84 89 83 95 75 73 54 74 79 73 75 70 57 51 54 54 69 66 50 51 51 54 56 68 71 75 76 73 74 72 74 74 73 70 70 60
99 98 98 97 80 70 73 66 63 64 68 75 72 71 76 71 63 61 51 76 64 43 47 53 73 68 54 56 58 62 60 68 67 76 82 79 82 79 76 78 77 75 74 70
98 98 89 89 76 85 95 73 59 55 50 56 70 84 94 87 70 67 63 69 69 50 50 59 69 65 60 63 64 65 72 72 72 78 77 83 86 79 77 81 80 79 77 73
94 97 96 93 95 95 59 76 76 76 92 95 90 89 81 71 65 65 60 66 49 52 54 64 75 64 62 67 70 67 75 72 75 80 77 76 75 72 83 86 84 80 78 79
88 81 96 94 81 62 53 59 62 69 75 91 80 82 64 66 78 73 51 44 50 62 65 75 73 70 72 75 71 82 77 70 71 70 70 72 76 80 85 88 85 82 83 83
68 87 86 96 98 99 62 46 53 70 86 89 90 80 78 82 93 59 44 47 62 66 68 71 68 68 68 66 68 87 64 67 69 66 65 69 77 82 80 76 85 83 85 84
86 94 95 91 94 89 75 66 56 81 66 79 80 74 78 86 69 54 57 63 66 67 67 66 64 58 51 54 81 71 66 68 66 71 69 70 74 77 76 77 78 85 86 85
71 87 95 100 98 90 58 52 56 59 58 63 66 58 55 52 60 67 64 62 59 64 58 53 56 53 47 51 74 72 68 61 75 75 72 74 76 76 75 77 77 83 89 91
84 67 75 69 69 52 50 58 45 45 63 55 63 55 61 62 66 63 63 64 60 58 56 55 68 67 57 63 80 79 68 71 76 79 76 75 74 76 77 80 79 79 85 92
68 53 58 59 45 47 39 36 38 47 52 48 50 56 60 66 64 68 65 63 61 66 70 71 80 75 71 66 72 74 73 75 81 83 77 75 77 77 76 75 74 79 86 88
62 68 72 65 48 46 44 42 40 39 44 51 56 67 71 72 68 65 68 73 68 66 66 69 72 74 73 68 69 69 72 77 82 82 77 76 76 78 78 77 78 77 77 85
57 60 67 70 45 44 40 38 44 49 56 71 71 75 76 76 73 68 70 64 65 67 68 72 71 71 70 71 72 71 72 77 82 84 77 75 76 76 76 79 79 73 72 71

GFSCGP_sfc_rhum_021.txt.gz
RH
27 25 27 20 18 19 20 21 21 19 17 20 21 20 17 13 12 12 12 11 11 13 15 18 22 25 26 27 26 23 23 22 27 36 47 52 55 58 56 56 57 58 57 57
32 30 21 19 21 25 23 24 24 20 17 20 22 22 18 16 15 13 13 13 14 15 18 21 24 29 31 34 34 30 27 25 26 32 43 43 44 47 51 54 57 57 60 57
31 24 21 24 25 26 23 25 24 25 23 21 21 24 20 16 15 14 12 15 20 22 24 27 30 32 36 38 38 34 32 30 28 30 36 42 47 46 47 54 58 62 62 63
29 25 28 28 28 24 30 21 26 26 28 31 25 37 25 19 17 15 17 22 26 29 31 34 36 38 40 41 40 35 36 36 34 35 40 46 46 45 40 42 52 59 63 61
26 31 33 32 26 25 26 28 25 27 32 34 29 33 25 19 20 18 24 30 33 35 36 37 39 41 40 44 45 39 37 37 39 40 42 43 47 45 40 38 49 57 62 64
27 26 25 24 23 27 27 27 26 29 33 47 30 30 27 21 18 20 27 32 36 36 36 35 36 38 40 44 44 44 40 41 42 40 40 44 46 47 47 48 54 56 57 58
28 29 26 27 30 30 30 32 46 49 53 58 28 40 30 23 18 20 31 38 38 38 38 37 37 38 40 42 44 41 42 43 43 47 43 43 44 46 46 48 50 50 52 55
38 36 32 27 29 33 34 34 51 68 60 52 49 51 35 22 27 32 36 39 40 41 42 41 37 37 38 40 40 40 43 38 40 44 46 45 46 46 44 43 45 45 46 47
37 38 31 32 28 30 33 42 32 59 71 73 48 36 28 28 36 38 40 39 41 41 42 42 38 36 36 37 36 39 39 42 39 41 45 48 50 51 49 48 48 47 46 42
48 66 42 39 34 32 32 34 54 50 90 78 48 41 32 30 35 44 46 44 42 40 38 39 39 37 36 37 36 35 34 37 37 40 43 42 47 48 49 53 56 56 53 50
51 74 52 43 43 43 37 43 42 43 59 81 76 46 41 45 45 52 48 45 42 38 35 36 41 33 30 30 31 34 36 38 38 40 45 46 46 47 45 47 52 60 59 57
47 58 78 50 33 32 42 51 47 68 76 59 66 76 45 55 55 48 47 45 42 41 32 28 38 35 27 27 29 27 30 35 40 38 45 45 43 46 44 43 49 62 62 63
63 82 91 71 35 66 71 58 57 65 84 96 96 66 54 59 61 62 64 56 45 43 22 21 24 32 28 25 26 24 26 31 37 36 42 44 48 54 53 48 50 58 63 64
76 91 90 79 51 48 70 69 68 88 96 81 76 77 65 70 76 73 64 48 44 34 28 26 24 27 28 25 22 22 23 26 37 35 38 47 50 52 50 51 56 63 62 61
60 89 71 63 51 54 66 68 62 63 63 84 63 68 51 39 39 44 38 37 42 33 25 24 26 30 30 29 25 24 26 29 33 40 42 45 51 50 57 63 63 69 71 62
47 81 71 83 58 54 63 56 55 58 60 60 56 51 29 31 34 34 31 28 26 23 28 24 26 27 30 34 33 31 30 36 42 56 62 60 69 69 70 69 66 66 67 60
64 74 82 84 58 57 75 60 44 40 37 36 44 56 64 49 39 35 35 31 29 24 25 26 24 26 29 34 37 38 37 43 61 74 76 75 73 72 68 66 62 61 61 60
72 81 82 87 77 94 47 22 27 37 42 52 71 71 46 30 24 25 25 29 32 25 23 24 26 27 36 38 40 39 53 61 66 71 75 73 68 68 66 63 64 60 59 62
41 53 78 90 84 54 45 32 31 33 41 42 66 37 28 26 25 24 17 20 23 25 27 32 34 35 39 42 42 53 57 58 59 59 61 61 62 70 70 75 69 63 67 68
39 43 64 78 87 78 31 27 31 34 56 72 67 48 47 36 39 27 22 28 28 28 33 37 39 47 49 46 47 56 58 62 60 58 58 58 64 72 74 72 72 70 73 72
61 74 88 84 85 64 51 52 37 70 64 69 64 52 50 46 38 36 33 30 32 37 41 42 50 51 48 48 57 61 60 62 60 64 66 69 69 74 73 74 74 75 75 71
40 58 71 74 78 72 39 43 52 42 41 51 41 34 37 34 33 33 29 32 33 38 44 49 54 54 49 50 64 67 65 60 67 70 71 73 75 75 75 78 78 78 78 79
59 45 55 57 50 30 34 44 37 40 54 49 41 37 35 37 32 31 33 36 43 51 54 60 70 68 53 66 70 74 67 68 72 76 78 77 76 77 78 82 84 85 82 83
43 34 46 59 40 38 35 33 32 33 37 36 36 39 38 40 39 46 52 55 55 64 68 69 75 78 76 70 70 73 72 73 78 81 80 78 80 79 78 74 73 80 83 82
47 37 54 58 43 39 37 34 35 36 37 39 39 42 41 45 54 51 57 65 59 59 62 71 76 77 74 69 73 74 75 78 83 83 81 82 78 79 77 74 74 74 76 78
42 45 48 53 34 35 33 32 32 36 35 39 46 60 62 60 58 54 61 56 57 63 65 73 74 75 76 77 78 78 78 81 86 88 81 77 77 76 73 73 72 72 75 75

GFSCGP_sfc_rhum_024.txt.gz
RH
37 40 41 32 27 25 34 33 33 28 24 28 30 30 25 21 20 19 20 20 25 27 30 32 36 40 42 42 41 40 39 40 43 58 72 80 86 87 87 86 78 78 83 82
46 47 31 27 29 31 33 37 34 29 25 30 32 32 24 20 20 21 22 26 29 31 35 38 42 46 47 47 43 43 42 41 43 50 64 69 75 78 84 82 79 73 78 79
41 34 31 32 33 32 33 37 34 35 32 28 33 38 33 25 23 25 28 30 35 40 43 45 47 51 53 53 47 44 46 46 47 52 56 64 69 70 68 77 80 83 74 78
39 34 34 38 36 34 38 30 34 39 41 45 37 54 42 29 28 32 35 41 45 46 46 46 48 52 55 56 53 48 48 48 46 53 64 66 71 70 66 66 75 82 78 80
42 41 44 41 34 32 39 37 36 39 44 52 45 57 42 31 34 41 45 47 48 47 47 49 51 48 53 57 58 56 52 52 52 54 58 66 69 70 69 69 67 71 80 80
37 33 35 34 32 34 36 37 37 40 45 77 45 47 45 33 32 39 43 46 46 47 46 45 46 46 50 56 56 51 49 52 56 56 57 61 63 64 70 70 76 77 78 82
40 37 36 35 41 42 43 47 76 78 84 79 50 57 44 31 27 33 44 50 52 51 50 48 49 50 52 56 57 47 52 49 55 61 62 62 63 65 64 68 71 71 75 78
54 53 42 36 40 47 48 48 81 85 78 64 64 74 49 36 40 42 46 51 52 55 54 51 49 50 50 48 49 50 53 49 51 55 59 61 63 66 65 66 69 71 71 70
48 44 42 39 39 39 49 56 47 69 81 90 65 46 36 45 50 50 50 51 55 54 54 52 48 48 50 50 48 46 48 51 50 56 56 56 56 55 58 67 72 71 70 57
58 76 51 48 45 44 46 43 69 72 98 95 66 60 45 57 55 53 53 54 49 46 46 51 47 43 43 44 46 46 46 48 49 56 58 53 58 56 54 56 64 70 70 69
59 79 66 55 58 53 50 56 54 53 72 88 75 58 57 65 61 60 56 51 48 43 40 46 50 37 35 37 37 40 45 51 51 54 58 58 61 60 57 59 62 70 73 71
62 70 91 67 46 46 50 54 58 84 78 72 69 69 61 63 58 53 51 48 47 47 34 32 42 40 34 34 36 32 38 49 48 48 57 56 58 65 64 57 60 72 72 74
73 90 94 73 47 75 75 66 61 63 99 96 98 83 62 60 59 56 66 67 56 50 36 41 44 52 45 38 36 32 34 40 49 46 48 55 59 64 64 62 64 68 76 76
74 84 86 74 54 53 73 63 61 80 94 82 76 67 48 63 76 83 88 80 58 48 33 32 32 35 36 34 31 29 31 36 42 48 49 57 63 64 64 68 70 72 76 84
67 92 84 75 67 67 71 69 65 71 67 82 62 58 48 43 50 54 48 44 48 47 37 32 32 36 38 42 42 38 38 43 47 54 63 63 66 69 72 79 82 78 76 79
61 89 84 90 76 72 75 63 61 59 58 58 55 57 38 46 40 42 39 35 35 29 27 32 30 32 35 37 44 43 42 50 56 65 73 71 80 77 81 87 83 79 74 78
75 90 94 93 70 75 86 62 52 47 41 42 54 59 83 65 45 42 40 41 41 36 32 30 33 31 37 44 46 53 54 57 80 86 82 84 85 82 74 77 75 67 65 65
84 89 92 95 88 96 47 34 38 44 44 59 84 87 72 46 35 37 33 36 35 36 32 33 38 37 45 52 56 56 65 83 83 83 84 85 84 84 77 78 76 67 65 65
60 74 88 96 94 60 48 40 40 48 49 55 68 73 39 37 40 35 27 34 37 38 39 42 46 50 59 61 62 72 79 80 77 74 74 76 78 78 72 73 72 70 71 70
45 51 72 95 100 95 43 38 37 44 68 79 79 73 67 59 70 53 39 41 41 41 43 50 55 66 64 65 66 76 77 80 71 68 70 72 77 80 77 74 75 74 75 75
87 90 84 83 90 82 67 60 43 79 60 80 76 76 75 70 60 52 47 43 42 46 54 66 68 67 65 65 75 72 70 72 74 75 74 73 72 78 76 75 74 76 78 76
65 82 91 92 97 89 50 55 65 59 71 71 65 56 54 51 48 46 43 44 44 60 67 70 71 66 62 66 78 73 70 65 73 76 78 77 77 77 76 79 77 77 79 82
74 57 78 68 76 49 51 56 55 52 73 65 61 58 51 51 49 46 45 49 67 69 67 71 84 77 67 86 87 81 72 74 76 80 82 81 80 80 79 82 82 82 81 84
60 47 54 71 49 45 39 37 40 42 47 49 51 53 54 54 52 50 59 66 67 84 85 88 90 91 88 88 79 88 79 78 83 86 85 82 83 82 80 78 76 80 82 82
55 60 65 60 48 44 41 42 42 41 42 46 50 51 53 54 56 60 73 82 78 81 84 89 90 87 83 79 80 86 80 85 87 86 85 85 81 81 80 78 78 78 80 84
54 53 54 60 42 40 38 41 45 48 49 50 53 64 72 74 72 68 77 72 76 82 84 88 89 87 83 85 84 83 89 90 90 92 84 80 81 81 79 79 78 77 78 77

GFSCGP_sfc_rhum_030.txt.gz
RH
47 44 41 33 38 30 36 41 44 41 33 41 37 39 32 31 31 36 50 55 56 56 53 54 54 56 56 56 56 55 54 56 62 76 87 89 95 94 92 85 86 92 95 91
52 48 34 37 38 39 43 48 47 40 37 38 39 35 30 32 42 44 50 58 58 59 59 55 55 54 56 58 58 57 56 56 58 63 77 86 84 78 82 72 72 78 89 94
53 41 41 41 44 45 45 46 46 44 42 39 43 46 40 48 50 51 55 57 58 61 61 60 55 56 52 55 58 58 58 57 60 61 60 60 65 64 65 67 63 70 77 81
51 42 41 49 48 46 54 43 44 47 48 52 43 58 47 48 57 59 61 66 66 62 58 56 58 58 56 57 54 54 56 58 57 62 66 71 71 74 79 78 74 70 72 73
52 49 50 50 46 43 46 42 42 45 55 62 52 56 49 56 62 67 67 64 65 63 61 60 61 58 58 59 58 56 54 55 56 58 64 68 72 74 73 72 74 76 74 73
48 41 40 37 40 41 39 41 53 60 57 75 55 56 60 49 52 68 65 62 60 61 61 59 57 54 59 58 57 56 54 58 58 55 54 59 65 63 63 70 74 77 75 73
51 47 45 40 42 47 43 56 73 72 83 78 64 71 56 64 55 58 64 63 61 59 60 60 59 56 57 57 55 48 56 59 60 58 57 58 60 59 59 64 68 69 70 71
62 63 45 41 40 46 52 54 75 70 87 75 69 64 57 70 66 62 62 65 62 60 59 60 60 59 53 54 51 51 57 59 60 58 58 57 57 60 58 61 64 65 66 64
65 62 49 47 47 44 56 64 57 74 97 92 75 76 73 70 70 70 70 68 69 64 60 57 57 56 53 53 52 48 50 56 62 66 63 61 63 57 52 56 59 58 61 53
59 70 65 57 57 57 54 51 70 83 86 99 79 75 70 78 72 68 68 67 64 63 60 56 52 50 53 50 52 51 50 49 52 60 64 60 63 63 62 61 63 65 65 72
72 64 73 67 71 65 61 65 66 69 81 86 91 65 63 68 64 65 62 58 58 57 62 55 47 43 45 48 52 55 51 47 47 54 59 58 61 61 61 62 61 64 65 66
69 82 94 76 64 63 59 59 62 83 77 92 86 57 66 64 60 60 60 56 56 53 52 62 47 48 47 45 43 45 52 53 51 52 53 54 56 61 63 63 65 68 65 65
69 86 95 76 57 77 70 74 67 81 95 96 93 79 68 68 67 63 66 64 60 56 48 64 55 48 47 48 48 47 49 55 60 55 53 55 58 62 64 66 67 70 72 71
68 86 79 69 51 73 76 72 71 71 98 91 88 81 65 73 73 70 71 68 68 60 47 54 61 62 54 50 46 41 44 50 56 59 60 64 67 68 70 72 76 79 79 77
66 90 92 84 78 76 80 79 77 77 72 78 50 55 44 48 57 53 61 77 90 71 47 48 48 50 53 49 45 45 46 49 53 56 59 62 69 72 77 83 88 86 86 78
74 86 89 87 76 76 84 72 75 75 72 74 67 65 43 44 52 60 50 66 79 68 57 46 45 44 45 45 47 49 52 55 60 67 76 72 80 79 79 84 81 75 69 65
82 88 92 92 81 74 76 69 53 39 52 48 53 51 77 60 55 55 53 45 41 39 37 34 37 41 41 44 43 54 63 69 86 88 90 87 87 89 88 81 73 66 63 61
86 88 91 93 87 93 50 46 46 49 51 69 79 83 77 65 60 45 45 38 36 38 42 36 37 41 46 56 66 67 72 87 87 89 90 93 90 89 77 69 70 67 65 68
72 75 96 93 96 70 44 39 49 51 50 64 67 66 58 66 43 42 34 36 37 39 40 41 44 48 70 70 69 73 81 83 78 82 92 90 89 85 78 83 77 73 74 74
80 72 74 100 95 84 45 48 45 43 65 71 69 65 80 53 64 51 37 41 41 42 45 48 56 73 72 70 65 72 82 85 84 86 74 73 80 92 86 79 80 79 82 78
98 95 91 84 99 87 68 61 48 67 52 75 75 66 74 66 49 51 47 45 47 51 52 65 77 71 68 69 73 76 81 85 88 86 84 86 82 85 84 85 83 84 84 80
81 90 98 98 97 93 59 56 59 52 64 66 68 61 59 52 49 53 52 56 53 55 72 75 76 69 67 71 75 77 78 79 86 92 92 90 90 87 83 90 88 87 89 90
60 64 76 77 77 55 58 55 48 51 63 70 61 56 52 52 52 52 55 57 54 53 70 73 79 74 68 84 83 85 85 88 90 97 96 94 92 90 90 93 90 91 87 88
63 54 64 68 53 55 49 45 48 54 56 54 57 51 57 54 56 54 57 55 58 82 86 88 87 87 88 88 83 84 90 92 100 100 95 92 95 92 92 87 83 88 90 90
62 63 72 72 51 49 51 50 44 42 55 54 57 55 54 57 56 57 59 74 78 87 88 87 86 86 85 87 84 91 92 96 98 97 94 94 93 95 90 88 85 85 84 88
56 48 59 63 39 41 40 44 48 53 50 54 56 60 67 66 61 67 72 79 88 87 88 87 87 85 85 84 82 90 91 97 100 97 94 93 92 91 86 86 85 82 81 82

GFSCGP_sfc_rhum_033.txt.gz
RH
49 37 39 38 38 31 36 44 44 44 36 43 41 41 34 33 44 59 65 65 64 63 58 52 51 54 57 59 59 59 60 61 63 74 91 84 72 73 66 63 72 79 86 93
51 43 30 34 38 39 45 50 49 43 41 41 42 38 39 52 57 59 65 67 66 64 59 52 53 53 57 59 60 61 60 62 64 65 75 82 81 77 68 61 61 66 71 76
50 41 41 38 47 47 51 53 50 45 48 46 50 47 48 60 62 61 64 64 64 65 62 61 56 60 58 59 62 58 59 60 64 63 62 62 66 66 66 68 67 68 65 64
55 46 45 52 49 47 58 46 44 52 51 56 53 62 47 60 69 68 68 70 68 65 63 62 62 58 61 61 62 56 54 53 55 63 64 68 70 73 80 78 75 73 72 68
53 54 55 54 49 46 51 49 48 47 55 62 55 59 51 66 74 75 74 70 69 66 63 62 62 57 58 59 64 64 55 54 51 52 56 57 58 67 60 59 60 65 66 63
54 45 44 46 46 47 43 45 57 66 59 80 56 54 59 61 59 73 70 69 66 66 64 61 58 56 55 56 60 62 55 58 56 50 52 52 56 52 54 59 62 63 63 60
56 50 48 40 45 47 49 55 71 74 84 81 72 71 55 70 72 62 67 69 66 62 63 61 58 57 52 52 56 54 57 59 58 52 50 52 55 56 56 63 64 63 65 62
61 64 48 43 41 47 53 53 75 72 83 73 72 77 54 77 71 62 60 63 63 63 62 63 61 58 52 47 49 55 61 62 61 59 62 58 57 57 58 59 60 65 65 62
67 63 52 47 52 45 57 62 58 75 98 92 72 71 76 75 76 75 72 70 68 65 64 64 63 58 54 50 46 46 54 63 64 62 62 64 62 59 58 60 63 64 61 50
56 67 63 64 56 55 55 54 71 82 80 98 70 76 62 82 81 77 78 76 72 67 64 61 60 59 54 53 54 50 47 53 60 63 61 61 62 63 62 64 63 64 66 66
67 63 75 67 68 64 64 67 68 68 75 77 82 56 59 67 70 74 73 69 70 68 66 59 54 52 51 53 54 54 49 49 52 56 59 60 62 62 63 64 67 68 67 69
69 75 91 76 75 76 65 63 64 70 73 90 81 54 73 68 65 67 67 63 64 61 62 61 52 52 54 51 50 49 52 50 50 53 54 55 56 60 63 65 67 73 72 73
69 84 92 79 60 78 76 70 70 86 89 89 84 75 70 68 66 64 65 64 62 60 58 68 53 54 51 50 48 46 52 54 57 56 54 55 57 62 64 66 68 73 76 78
66 82 76 70 61 71 80 74 74 77 93 86 72 71 80 73 69 70 72 70 67 64 56 68 58 51 49 48 49 48 49 55 60 63 61 63 67 68 71 74 78 83 84 86
71 85 89 76 73 78 78 79 78 75 69 72 62 67 59 66 72 72 58 57 72 76 56 57 65 65 63 56 52 46 46 51 58 61 62 66 70 72 78 84 93 86 83 70
75 89 89 89 84 87 96 83 78 72 70 71 68 66 52 55 52 53 54 60 81 90 70 52 50 50 54 53 51 48 52 57 59 66 72 70 85 87 91 85 74 65 62 63
82 87 91 92 76 69 84 73 70 64 72 65 74 58 74 54 53 55 57 52 58 64 68 57 47 46 46 49 46 52 58 75 85 86 91 93 90 86 81 74 69 67 67 67
90 94 97 97 90 96 61 49 47 54 52 64 75 73 68 61 58 56 57 53 45 41 40 41 39 40 46 48 53 67 76 84 81 86 92 92 83 83 77 76 75 72 69 70
72 80 96 96 97 76 56 45 46 47 39 63 62 64 57 60 47 48 38 42 38 39 41 46 46 43 52 65 71 78 79 78 73 85 90 85 86 90 82 88 83 78 79 79
75 72 94 96 96 95 53 46 44 40 60 65 74 70 64 53 72 46 41 38 39 41 42 43 46 58 70 74 71 75 79 76 77 84 75 77 89 94 94 87 85 83 88 81
99 97 94 97 94 87 70 61 46 62 47 78 67 60 75 65 54 49 46 42 44 47 47 51 60 67 71 72 77 77 80 73 88 81 84 89 87 94 90 92 89 89 90 83
81 92 98 98 97 91 58 54 58 54 58 62 60 50 58 56 50 52 47 45 45 50 54 59 73 77 72 75 77 80 74 82 83 90 90 93 95 89 87 99 94 96 95 94
60 64 80 76 78 56 58 56 47 52 61 65 54 50 57 57 55 50 52 55 55 54 52 73 83 80 74 82 81 80 82 82 86 94 95 97 94 93 94 100 94 95 95 96
64 54 63 69 57 54 50 51 50 54 51 46 53 49 57 56 52 50 51 52 58 69 75 89 89 87 88 89 84 86 85 90 98 93 93 93 97 96 96 92 90 95 95 94
57 61 75 72 50 49 48 50 49 49 54 55 54 55 56 58 52 52 56 74 70 74 90 88 86 86 87 89 89 91 90 92 92 94 92 94 95 99 96 93 93 90 88 91
58 48 57 66 44 42 41 46 48 52 47 51 59 59 66 68 61 60 67 65 74 86 93 91 90 88 90 91 89 91 93 93 95 94 90 96 97 97 92 94 90 81 81 81

GFSCGP_sfc_rhum_036.txt.gz
RH
50 41 44 41 36 37 36 44 42 43 38 44 42 43 38 48 62 70 71 71 67 64 57 53 54 58 60 61 61 62 65 68 67 79 94 70 69 66 64 61 61 60 63 72
48 44 34 34 41 37 44 46 46 44 44 43 46 43 56 62 68 68 70 71 66 61 58 55 57 58 61 63 62 60 63 66 66 72 78 77 79 74 68 64 62 63 64 63
50 41 39 36 44 43 48 47 52 44 51 49 61 49 60 70 68 67 69 68 64 62 61 60 58 63 64 64 68 56 58 63 66 67 66 68 68 68 66 67 66 63 60 66
51 46 46 52 48 45 53 48 47 51 58 64 61 64 53 69 75 72 70 72 69 67 64 59 57 60 63 64 65 60 52 52 53 57 56 57 55 54 72 67 65 58 57 54
57 56 55 55 53 47 52 54 54 54 59 64 64 64 56 74 76 78 76 72 71 68 63 60 58 54 57 60 65 62 54 50 49 50 49 49 55 60 60 60 58 63 59 57
56 50 49 48 51 50 46 51 58 66 64 81 58 56 64 70 62 76 74 72 68 67 64 61 58 52 54 58 60 60 51 53 52 49 49 46 46 52 50 58 60 65 65 59
61 53 48 42 48 48 49 56 73 74 84 80 74 69 55 59 69 67 70 71 71 68 66 62 57 50 51 56 57 52 53 56 57 53 52 52 55 55 57 64 65 64 66 68
72 69 50 45 44 51 55 55 74 72 78 70 79 79 61 76 74 70 64 66 69 68 66 64 60 53 46 50 56 59 61 57 58 59 58 58 59 61 64 62 65 68 70 68
67 60 54 49 53 46 56 58 57 74 98 93 70 67 68 79 80 75 74 71 70 68 68 67 64 57 46 45 48 57 61 62 58 59 63 63 61 61 63 66 67 69 68 53
54 64 63 59 52 55 56 54 68 79 79 95 71 69 57 76 79 79 76 72 70 68 67 67 66 59 54 48 48 48 54 59 62 62 61 62 65 65 66 67 68 68 68 69
58 61 75 64 65 60 63 67 71 66 73 80 83 57 62 61 74 76 73 68 70 70 69 66 63 60 55 56 55 52 52 54 56 58 61 61 62 63 64 65 68 71 70 73
62 70 92 74 77 75 68 63 64 67 76 91 83 61 80 74 71 68 70 68 73 74 71 67 60 57 57 57 55 52 52 52 53 57 58 59 61 63 65 67 69 76 75 77
66 82 89 80 73 77 78 70 72 79 81 87 82 68 74 75 75 74 74 74 69 67 68 71 62 59 59 56 52 50 54 52 55 56 56 58 61 65 68 71 74 78 81 82
64 81 76 70 67 74 84 77 77 76 90 85 68 60 82 77 73 76 71 69 68 67 66 66 68 58 56 52 49 45 48 55 59 61 60 62 66 69 73 78 81 80 81 75
65 80 84 70 60 71 74 76 80 78 66 71 59 64 65 67 70 66 65 71 64 63 72 65 68 59 56 52 49 49 50 53 60 65 65 67 70 71 80 82 90 74 70 62
72 90 90 94 83 88 92 76 82 72 74 76 69 66 49 59 65 68 64 56 52 62 77 65 62 63 57 52 53 48 49 52 60 64 70 68 83 87 92 88 75 71 68 68
83 92 94 93 82 84 94 84 85 82 77 66 74 61 67 62 57 58 57 57 58 66 77 78 56 53 55 60 54 57 55 62 82 86 90 92 89 86 81 78 74 71 73 71
88 93 96 97 93 96 62 50 62 76 71 79 74 72 66 59 56 55 59 58 55 54 59 65 62 54 52 52 55 57 66 85 85 87 90 91 81 82 83 81 80 75 74 75
79 87 96 96 95 81 68 50 44 40 41 59 64 60 54 55 49 46 45 57 55 51 47 48 48 45 46 50 56 73 86 84 80 80 85 83 81 86 81 88 86 83 84 82
84 85 87 96 96 93 60 50 44 36 52 62 62 62 69 52 55 42 40 42 43 41 41 44 47 51 49 57 74 83 84 82 76 83 80 78 85 92 93 87 92 93 94 80
97 97 96 96 96 88 74 60 42 57 54 81 76 76 74 62 45 36 44 43 42 43 44 46 52 53 56 72 85 84 85 77 83 84 82 85 85 93 93 94 94 96 96 85
85 93 96 98 96 90 57 51 52 54 61 65 62 49 55 46 39 48 47 45 44 45 48 53 61 62 68 81 82 83 81 83 86 85 86 88 93 86 84 99 96 98 99 98
58 64 76 79 77 59 48 56 53 49 59 58 52 48 45 48 48 46 50 54 50 47 47 57 68 72 80 87 82 83 85 86 87 90 93 92 87 89 89 99 95 96 99 100
62 54 64 61 61 55 51 50 52 53 48 48 51 48 54 53 50 49 53 56 58 65 69 80 90 88 87 90 84 86 86 88 91 94 90 90 95 90 92 88 89 99 99 97
55 57 76 72 50 48 45 48 44 52 54 53 54 53 53 57 55 57 60 72 72 72 84 89 85 84 85 89 87 89 89 90 91 94 91 92 90 94 93 89 92 92 90 94
55 52 54 64 41 38 39 40 42 50 48 50 55 60 68 69 66 69 73 70 74 77 92 91 89 91 94 91 90 92 91 90 91 92 91 90 86 89 89 94 93 84 83 80

GFSCGP_sfc_rhum_042.txt.gz
RH
32 27 32 25 23 24 26 26 25 24 23 27 25 23 22 31 34 35 34 33 33 35 37 37 40 42 44 46 48 50 53 55 55 52 52 51 49 44 42 41 46 49 49 52
33 33 26 29 28 26 28 29 27 25 26 28 24 27 22 35 34 34 35 33 33 35 34 36 36 39 42 44 46 47 47 48 48 49 50 43 38 34 34 35 37 38 42 41
30 28 30 28 32 31 28 29 26 28 33 32 33 32 30 41 46 44 38 33 33 33 34 34 34 35 37 41 42 42 44 44 44 43 39 35 30 27 28 30 34 37 35 35
29 30 31 31 28 27 31 27 28 31 33 38 33 38 34 34 45 49 46 37 35 36 34 33 32 32 35 37 37 36 37 38 36 36 36 33 28 28 27 30 35 38 39 34
33 42 41 37 32 29 33 34 32 34 36 42 36 39 30 45 44 49 46 40 35 36 34 32 32 33 31 33 34 32 31 31 32 32 31 30 32 29 26 31 39 39 39 38
40 39 37 34 42 34 41 39 41 40 40 56 41 41 32 36 36 38 44 40 38 37 34 32 32 32 29 32 33 30 28 29 29 28 28 29 31 32 33 35 37 37 35 34
47 44 37 37 43 41 38 41 54 62 62 61 46 46 30 30 39 38 44 42 38 39 34 33 33 30 29 31 33 29 26 28 29 30 29 30 31 32 33 35 34 34 34 34
57 58 44 36 40 45 45 40 55 82 66 47 61 51 34 43 49 48 40 40 40 40 36 34 32 31 29 32 29 28 30 29 29 30 32 33 33 32 32 32 32 33 34 35
57 58 42 38 38 37 44 48 41 62 84 68 37 38 37 59 55 53 49 45 45 43 40 37 32 30 30 32 29 27 27 30 30 32 33 34 35 36 35 36 35 35 35 34
44 56 48 44 38 42 40 37 56 51 81 77 48 47 32 53 49 55 58 51 44 43 42 38 33 29 29 29 28 29 27 29 33 34 33 34 37 37 37 36 38 39 39 37
42 49 60 46 46 42 46 47 46 41 54 75 60 38 30 34 41 50 50 48 43 44 42 40 36 30 28 29 30 28 30 33 35 36 39 40 40 40 40 39 40 40 39 37
49 64 76 51 50 49 38 38 40 50 70 56 59 46 41 41 42 41 45 48 42 42 41 37 40 38 31 27 28 30 31 34 35 37 41 41 42 42 42 41 41 43 37 38
51 76 96 78 54 60 54 49 44 40 72 85 75 50 53 54 52 47 45 48 47 45 41 41 43 44 37 30 28 27 30 33 36 39 41 42 42 42 42 43 42 38 37 36
50 74 80 66 48 44 64 52 51 50 67 58 60 50 52 49 49 52 50 47 46 45 43 43 43 45 42 37 30 25 27 32 36 39 41 42 43 43 43 45 42 39 36 35
52 91 67 53 44 52 57 53 53 51 44 54 43 47 41 39 45 41 40 43 46 47 45 43 44 44 44 44 36 29 25 31 35 39 40 41 45 45 49 52 50 47 44 38
74 85 70 76 53 58 67 58 54 50 45 42 40 45 34 37 41 45 46 50 51 48 47 48 50 51 51 46 42 37 31 35 38 37 43 41 55 63 71 64 56 51 49 49
86 85 100 96 74 81 92 78 59 50 43 41 49 53 62 56 53 52 50 51 50 49 50 49 48 47 52 49 44 43 38 36 55 66 72 76 77 75 69 62 56 52 50 48
100 100 100 98 98 97 68 46 48 55 57 65 73 86 71 57 49 50 54 52 52 50 46 43 45 43 49 49 47 43 46 52 62 70 78 78 76 78 70 62 58 52 50 53
98 98 97 97 94 78 63 43 62 64 61 65 64 62 52 45 39 38 42 44 48 47 44 45 47 48 50 50 48 55 64 62 61 62 70 74 77 81 69 74 61 55 60 60
97 100 98 96 97 93 53 42 35 40 57 72 83 79 64 44 56 44 39 43 42 41 42 43 44 52 54 52 55 66 68 70 67 61 62 68 78 82 80 68 70 68 69 68
96 98 97 96 96 90 88 49 33 72 88 76 84 84 64 55 44 37 40 38 38 41 44 41 43 46 42 50 64 63 66 69 62 72 75 79 76 81 72 72 69 77 76 67
82 93 95 97 97 94 45 38 54 64 53 60 57 55 53 41 31 32 30 30 33 35 39 46 47 46 43 58 67 65 66 56 77 80 82 83 85 75 76 82 80 80 81 82
81 78 88 84 82 56 38 53 47 47 64 50 45 47 42 38 29 30 32 38 37 37 42 46 56 53 48 70 71 70 61 80 85 87 89 87 84 81 84 82 80 76 80 75
59 45 56 76 60 48 43 56 47 42 41 43 42 46 44 41 32 34 38 40 42 62 67 73 75 76 71 74 79 74 84 86 88 88 86 85 84 80 83 73 71 76 75 71
58 53 67 56 44 44 43 47 47 44 42 41 42 41 39 38 43 42 55 67 64 66 73 77 77 74 69 76 78 85 87 88 86 86 83 82 77 80 76 73 70 69 68 70
44 45 44 55 36 36 34 36 43 45 46 49 50 54 56 54 50 55 64 63 68 72 77 81 80 80 78 81 84 89 91 89 87 84 79 72 69 68 65 64 66 74 77 80

GFSCGP_sfc_rhum_045.txt.gz
RH
27 25 29 23 21 19 21 23 22 19 19 24 22 20 17 21 24 24 25 25 26 28 31 35 40 45 50 53 55 59 63 60 57 58 54 49 47 45 42 41 43 44 44 48
33 32 22 20 23 22 25 26 25 21 21 25 22 23 20 19 24 23 24 25 26 29 30 36 39 44 47 50 51 52 52 51 48 47 46 40 38 37 36 36 37 36 39 36
31 25 24 28 28 28 26 27 25 25 28 26 26 31 28 22 23 26 27 25 25 28 29 34 38 41 44 46 47 45 46 46 45 44 36 34 32 30 31 34 38 38 36 37
29 23 29 31 28 26 31 23 25 26 31 35 29 38 26 23 32 36 36 30 27 28 29 31 34 36 40 42 42 41 41 41 38 36 37 36 30 31 30 34 39 41 40 34
28 33 33 33 29 25 29 28 29 30 35 39 36 42 29 27 31 35 38 35 30 31 31 31 31 32 32 37 38 36 35 33 33 34 34 35 36 33 29 34 44 42 43 40
29 33 28 28 34 28 32 34 37 37 39 56 39 39 34 30 32 29 37 36 32 33 31 29 30 30 31 37 36 34 30 30 30 29 30 32 35 35 37 37 41 39 35 34
37 38 35 34 39 39 35 40 56 60 62 62 36 43 35 25 29 26 38 37 32 33 31 29 31 28 29 35 34 31 29 30 30 32 30 30 30 32 35 36 36 35 34 33
42 47 39 35 37 40 45 42 58 85 65 52 51 51 34 31 31 36 33 34 33 35 32 31 31 28 28 32 31 27 34 28 28 29 30 31 32 31 30 29 30 31 32 32
44 44 38 35 33 35 44 51 38 62 82 66 38 35 28 47 45 42 37 37 36 37 35 33 30 27 28 31 29 27 26 30 27 30 31 32 33 34 33 33 33 32 32 31
39 51 42 40 35 36 40 34 58 54 90 80 42 39 32 54 45 46 43 41 39 38 35 32 30 30 27 28 26 26 26 28 31 32 32 32 34 33 33 34 37 37 35 33
39 45 55 44 44 44 47 47 43 41 52 75 60 39 27 32 36 45 45 42 40 39 37 33 31 30 29 28 28 27 28 32 35 36 38 39 38 36 36 40 39 39 38 36
46 49 66 47 36 35 33 39 40 55 69 54 62 46 28 30 31 37 44 43 39 38 37 32 32 30 31 30 28 27 29 34 36 36 40 39 38 40 41 38 40 46 38 38
49 79 100 82 53 50 48 41 40 40 74 80 73 48 37 40 38 35 39 41 40 39 37 36 34 32 29 29 30 27 28 32 36 37 41 41 42 43 43 43 42 42 39 38
57 83 90 69 49 41 58 50 46 49 69 61 58 47 44 41 41 40 38 41 40 40 39 38 37 37 33 29 26 26 28 31 36 38 41 44 44 44 43 45 45 43 40 39
65 99 84 70 53 47 53 54 50 51 46 55 46 42 33 31 35 34 35 38 42 43 40 38 39 42 40 36 28 25 24 30 33 36 41 43 47 45 47 53 54 50 47 38
73 99 85 93 72 68 72 56 50 48 47 42 38 36 25 25 27 30 35 39 43 43 41 40 41 44 46 43 37 33 25 32 35 37 44 43 50 58 71 69 64 57 54 51
91 99 100 96 82 83 94 84 60 47 41 38 46 40 58 43 40 44 47 40 43 42 43 42 43 43 47 47 45 40 35 34 45 55 63 66 68 74 75 73 66 60 57 51
100 100 100 98 100 98 66 43 48 52 47 46 49 92 77 59 50 53 50 49 49 47 44 45 46 43 53 50 50 46 48 48 58 66 73 76 75 79 77 74 69 61 56 58
96 98 99 98 96 71 55 48 55 58 58 48 58 66 58 55 48 44 47 50 48 50 49 50 48 42 48 52 54 59 62 59 63 66 71 76 75 80 79 79 72 64 64 64
98 99 99 98 98 93 51 40 43 44 76 74 78 74 70 52 76 60 46 52 54 54 55 57 59 60 59 59 60 68 68 68 65 62 63 68 76 80 82 78 77 75 74 74
96 98 98 98 97 94 81 50 39 80 86 96 81 74 60 55 51 48 46 46 48 49 50 51 52 57 58 64 73 72 73 72 64 71 74 74 77 82 80 81 78 83 84 69
86 94 95 98 98 95 41 39 56 60 56 74 70 64 55 47 37 42 39 40 38 39 49 50 54 51 53 69 72 74 73 66 80 82 84 87 88 85 85 86 86 86 86 87
87 80 91 93 89 55 44 56 57 58 78 52 56 56 53 37 28 33 34 33 35 36 41 52 60 55 48 74 75 76 66 81 87 88 91 92 91 88 89 90 89 84 86 80
63 52 78 93 93 76 61 79 53 46 45 46 47 51 44 34 31 36 39 42 42 64 67 76 76 79 77 78 82 73 86 88 88 90 92 93 92 90 91 81 79 84 82 80
57 57 76 75 51 59 94 84 54 48 44 43 44 47 41 43 42 42 58 64 63 68 77 80 78 78 76 83 82 86 89 89 89 90 90 90 87 88 87 81 77 75 75 74
46 47 52 66 47 71 66 53 49 48 43 47 46 49 55 51 50 54 65 65 69 74 81 82 83 86 88 89 90 93 93 90 89 90 87 82 80 80 76 76 76 69 69 66

GFSCGP_sfc_rhum_048.txt.gz
RH
37 39 42 31 29 26 28 31 34 29 27 31 32 30 26 26 28 30 31 35 36 35 40 45 53 66 60 62 69 72 71 71 65 65 58 54 54 54 53 50 50 50 53 58
45 47 33 28 28 32 31 34 36 30 28 33 32 32 27 28 29 28 29 35 36 40 42 47 56 66 60 60 61 64 64 64 60 55 55 56 54 50 49 48 47 48 50 47
44 36 31 31 36 36 35 38 37 36 34 36 38 42 35 30 28 28 30 32 34 38 42 50 59 66 56 58 58 57 57 61 59 51 44 42 45 48 49 54 53 52 49 50
39 32 34 37 36 34 41 32 32 36 43 51 41 60 42 35 33 32 36 39 38 37 39 46 55 62 64 58 59 56 59 58 52 48 49 47 45 46 50 57 60 56 56 50
41 39 41 42 38 34 39 39 40 44 47 60 47 57 44 34 34 38 42 44 39 39 40 46 52 54 54 57 59 54 50 48 47 50 48 44 46 48 49 56 60 58 58 54
37 43 38 37 40 38 39 43 49 52 54 79 52 53 52 39 35 37 42 43 40 40 42 43 45 45 51 52 52 51 46 46 46 46 46 47 47 51 55 60 63 61 57 56
44 43 44 40 48 45 43 51 79 86 87 84 53 60 46 40 38 34 41 43 39 40 40 41 43 45 50 52 50 46 43 44 46 47 46 46 46 49 53 56 56 55 56 55
52 59 45 43 41 50 53 49 84 87 90 84 65 70 50 52 45 43 39 41 38 42 38 40 40 40 44 48 46 41 47 43 43 42 44 46 46 51 51 48 52 54 56 53
44 49 44 43 41 44 57 61 45 72 85 90 67 52 39 54 56 51 47 43 40 42 40 39 39 37 43 49 41 42 41 43 42 44 46 46 47 48 49 49 50 53 51 43
48 61 52 48 42 46 53 48 71 73 92 96 74 67 49 61 54 55 51 45 40 41 39 38 38 37 40 41 39 39 39 41 46 47 48 46 49 49 50 52 54 51 49 48
48 61 67 52 56 55 59 60 56 54 78 91 87 63 40 38 45 52 47 43 40 42 39 38 37 36 37 38 38 39 41 46 48 49 51 53 53 51 54 58 57 56 54 51
50 63 84 62 48 46 48 54 51 65 76 71 80 56 37 44 44 44 46 42 40 41 40 37 36 36 37 36 37 37 42 48 51 53 56 55 55 55 58 57 57 60 55 54
53 79 94 88 66 54 55 50 46 45 75 66 78 61 49 48 50 48 50 48 44 44 43 39 38 37 36 36 36 35 39 47 50 54 59 59 60 60 59 60 61 59 57 56
56 87 77 70 62 62 69 58 50 53 71 72 61 58 57 52 54 53 53 49 47 44 43 40 39 38 37 36 34 33 37 46 50 57 60 63 62 62 62 64 64 60 58 58
62 84 80 67 59 60 66 66 56 56 52 64 53 51 42 41 48 46 44 50 49 47 45 42 40 39 37 38 35 32 34 44 46 51 58 61 67 64 66 69 68 64 60 55
80 96 86 87 83 78 83 81 64 55 51 48 48 49 40 36 37 46 46 50 51 48 44 44 42 43 40 35 34 34 33 46 48 50 58 64 68 70 76 78 74 68 63 60
93 99 100 96 86 88 99 92 81 70 50 48 57 45 49 43 41 48 51 49 50 49 46 46 45 44 46 40 33 35 36 47 55 64 73 72 74 71 80 78 74 72 71 68
99 99 99 96 95 98 72 67 70 72 68 55 51 67 74 56 43 52 47 47 50 49 49 47 46 44 56 54 52 45 53 54 61 68 72 78 72 77 86 82 78 77 74 72
89 97 99 98 97 79 74 64 65 69 64 60 62 54 66 64 60 62 66 59 56 57 55 53 53 51 59 61 58 64 63 62 62 65 73 73 76 82 86 84 83 74 75 80
100 97 98 99 98 95 78 56 57 58 75 72 69 68 74 69 66 75 61 65 64 64 67 68 67 69 68 75 70 70 69 66 65 66 69 74 77 83 85 82 85 81 86 74
98 99 98 98 98 95 82 62 57 79 76 92 87 83 72 74 66 68 63 64 69 68 69 70 66 67 70 75 77 79 81 70 65 77 81 84 84 82 82 87 90 85 86 86
93 96 98 98 98 96 58 52 72 74 66 90 82 74 67 57 59 65 60 62 62 63 69 65 67 68 74 82 78 85 78 74 84 84 82 85 86 87 89 88 94 91 88 88
93 89 92 87 91 62 59 65 67 64 78 62 79 77 62 48 46 53 55 52 53 55 58 60 64 63 63 85 83 85 85 86 89 88 88 91 94 93 92 91 93 95 92 90
78 63 97 95 97 82 73 89 64 53 48 49 57 74 58 46 46 45 47 46 47 71 71 83 74 74 77 89 86 86 86 88 89 91 94 95 94 96 96 92 91 89 91 90
72 74 91 91 71 90 87 93 92 66 45 45 50 58 52 44 45 48 62 64 64 70 82 76 72 78 81 89 89 93 92 89 90 92 95 96 96 95 96 94 91 88 91 84
58 63 77 88 68 81 82 79 83 82 55 47 46 54 58 51 48 58 69 72 74 78 89 86 88 88 91 92 96 97 96 91 91 95 96 96 96 96 96 96 96 73 72 67